Weather History for Martinsburg, WV

Change the Weather History Date:

Thursday, February 7, 2013

  Actual Average Record
Temperature  
Mean Temperature 31 °F 32 °F  
Max Temperature 39 °F 41 °F 70 °F (1938)
Min Temperature 22 °F 23 °F -3 °F (1935)
Degree Days  
Heating Degree Days 34 33  
Month to date heating degree days 253 231  
Since 1 July heating degree days 3029 3314  
Cooling Degree Days 0 0  
Month to date cooling degree days 0 0  
Year to date cooling degree days 0 0  
Moisture  
Dew Point 21 °F    
Average Humidity 65    
Maximum Humidity 81    
Minimum Humidity 48    
Precipitation  
Precipitation 0.00 in 0.08 in 1.61 in (1965)
Month to date precipitation 0.03 0.58  
Year to date precipitation 3.43 3.02  
Sea Level Pressure  
Sea Level Pressure 30.34 in    
Wind  
Wind Speed 3 mph (ESE)    
Max Wind Speed 10 mph    
Max Gust Speed 14 mph    
Visibility 9 miles    
Events      
T = Trace of Precipitation, MM = Missing Value Source: NWS Daily Summary

Daily Weather History Graph

Daily Weather History Graph

Search for Another Location

Airport:

Trip Planner

Search our weather history database for the weather conditions in past years. The results will help you decide how hot, cold, wet, or windy it might be!

Date:

Astronomy

Feb. 07, 2013 Rise Set
Actual Time 7:12 AM EST 5:39 PM EST
Civil Twilight 6:45 AM EST 6:07 PM EST
Nautical Twilight 6:13 AM EST 6:39 PM EST
Astronomical Twilight 5:41 AM EST 7:10 PM EST
Moon 4:50 AM EST (2/7) 3:02 PM EST (2/7)
Length of Visible Light 11h 22m
Length of Day
10h 26m
Waning Crescent, 9% of the Moon is Illuminated
Feb 7
Waning Crescent
Feb 10
New
Feb 17
First Quarter
Feb 25
Full
Mar 4
Last Quarter

Hourly Weather History & Observations

Time (EST) Temp. Windchill Dew Point Humidity Pressure Visibility Wind Dir Wind Speed Gust Speed Precip Events Conditions
12:53 AM 24.1 °F - 18.0 °F 77% 30.37 in 9.0 mi Calm Calm - N/A   Clear
1:53 AM 23.0 °F - 17.1 °F 78% 30.40 in 8.0 mi Calm Calm - N/A   Clear
2:53 AM 24.1 °F - 18.0 °F 77% 30.39 in 8.0 mi Calm Calm - N/A   Clear
3:53 AM 24.1 °F - 19.0 °F 81% 30.37 in 7.0 mi Calm Calm - N/A   Clear
4:53 AM 24.1 °F - 19.9 °F 84% 30.38 in 7.0 mi Calm Calm - N/A   Clear
5:53 AM 25.0 °F - 19.9 °F 81% 30.39 in 7.0 mi Calm Calm - N/A   Partly Cloudy
6:53 AM 26.1 °F 21.9 °F 19.9 °F 78% 30.41 in 7.0 mi NNE 3.5 mph - N/A   Partly Cloudy
7:53 AM 27.0 °F - 21.0 °F 78% 30.43 in 5.0 mi Calm Calm - N/A   Haze
8:53 AM 28.9 °F - 21.9 °F 75% 30.43 in 6.0 mi Calm Calm - N/A   Haze
9:53 AM 32.0 °F - 23.0 °F 69% 30.42 in 7.0 mi Calm Calm - N/A   Overcast
10:53 AM 34.0 °F - 23.0 °F 64% 30.41 in 9.0 mi Calm Calm - N/A   Overcast
11:53 AM 35.1 °F 30.1 °F 19.9 °F 54% 30.39 in 10.0 mi East 5.8 mph - N/A   Overcast
12:53 PM 35.1 °F 31.0 °F 19.9 °F 54% 30.36 in 10.0 mi SSE 4.6 mph - N/A   Overcast
1:53 PM 36.0 °F 29.0 °F 21.0 °F 55% 30.33 in 10.0 mi SE 9.2 mph - N/A   Overcast
2:53 PM 37.9 °F 32.7 °F 21.9 °F 53% 30.30 in 10.0 mi SE 6.9 mph - N/A   Overcast
3:53 PM 39.0 °F 34.8 °F 21.9 °F 50% 30.28 in 10.0 mi SE 5.8 mph - N/A   Partly Cloudy
4:53 PM 37.9 °F 34.4 °F 21.0 °F 51% 30.28 in 10.0 mi SE 4.6 mph - N/A   Mostly Cloudy
5:53 PM 37.0 °F 33.3 °F 21.9 °F 54% 30.29 in 10.0 mi ESE 4.6 mph - N/A   Overcast
6:53 PM 36.0 °F 32.1 °F 23.0 °F 59% 30.29 in 10.0 mi Variable 4.6 mph - N/A   Overcast
7:53 PM 36.0 °F 30.3 °F 23.0 °F 59% 30.27 in 10.0 mi East 6.9 mph - N/A   Overcast
8:53 PM 35.1 °F 31.0 °F 23.0 °F 61% 30.26 in 10.0 mi East 4.6 mph - N/A   Overcast
9:48 PM 35.6 °F 32.8 °F 23.0 °F 60% 30.24 in 10.0 mi ESE 3.5 mph - N/A   Overcast
9:53 PM 35.1 °F 32.2 °F 23.0 °F 61% 30.25 in 10.0 mi ESE 3.5 mph - N/A   Overcast
10:53 PM 35.1 °F - 23.0 °F 61% 30.23 in 10.0 mi Calm Calm - N/A   Overcast
11:53 PM 35.1 °F 32.2 °F 25.0 °F 67% 30.21 in 10.0 mi East 3.5 mph - N/A   Overcast